Temperature
9 8 8 8 9 9 10 10 9 10 10 9 9 9 10 10 10 10 10 10 9 9 8 8 8 8 7 7 7 7 7 8 8 8 8 8 8 8 8 8 9 9 9 9
8 7 8 9 10 10 9 9 9 9 10 9 8 9 10 10 10 10 10 9 9 8 8 8 7 7 7 7 7 7 7 7 7 7 7 7 7 7 7 8 8 8 8 9
8 8 9 9 9 9 9 8 8 8 8 9 8 8 9 10 10 10 10 9 9 8 7 7 7 7 7 7 7 7 6 6 6 7 6 7 7 7 7 7 7 7 8 8
8 8 8 8 8 8 7 8 8 7 7 7 8 7 9 9 9 9 9 9 8 8 7 7 7 7 6 7 7 6 6 6 6 6 6 6 6 6 6 6 7 7 7 7
7 7 7 7 7 7 7 7 7 7 6 6 7 6 7 9 8 8 8 8 8 7 7 7 6 6 6 6 6 6 6 6 6 6 6 6 6 6 6 6 6 6 6 6
6 7 7 7 7 7 7 7 7 6 6 5 7 7 8 8 8 8 8 8 8 7 7 6 6 6 6 6 6 5 5 5 5 5 5 5 5 5 5 5 5 6 6 6
6 6 6 6 6 6 6 5 6 6 5 6 8 7 7 8 8 8 7 7 7 7 6 6 6 5 5 5 5 5 5 5 5 5 5 5 5 5 5 5 5 5 5 5
6 6 6 6 6 5 6 6 5 6 7 7 7 7 7 8 8 8 8 7 6 6 6 6 5 5 5 5 5 4 4 4 4 4 4 4 4 4 4 4 4 4 4 5
6 6 6 6 6 6 6 5 6 5 5 5 7 8 8 8 7 7 7 6 6 5 5 5 5 4 4 4 4 4 4 4 4 4 4 4 4 4 4 4 4 4 4 4
5 4 5 5 5 5 5 5 5 4 5 6 8 8 7 6 6 6 6 6 5 5 5 4 4 4 3 3 3 3 3 3 3 3 3 3 3 3 3 3 4 4 4 4
5 4 4 4 4 4 4 5 4 5 5 5 6 7 8 7 6 6 5 5 5 4 4 3 3 3 3 3 3 3 3 3 3 3 3 3 3 3 3 3 3 3 3 3
4 4 3 4 3 3 4 4 4 4 4 5 4 6 7 6 6 5 5 5 4 4 3 3 3 3 3 3 3 3 3 3 3 3 2 2 2 2 2 3 3 3 3 3
3 3 3 4 3 2 2 3 3 3 3 4 4 5 6 6 5 5 5 4 4 3 3 3 3 3 3 3 2 2 2 2 2 2 2 2 2 2 2 2 2 2 2 2
3 2 3 4 4 3 2 2 2 2 2 3 4 5 5 5 4 4 4 4 3 3 3 2 2 2 2 2 2 2 2 2 2 2 2 2 2 2 2 2 2 2 2 2
2 2 2 2 3 3 3 2 1 1 2 3 4 4 4 4 4 4 4 3 3 2 2 2 2 2 2 2 2 2 2 2 2 1 1 1 1 1 1 1 1 1 1 1
0 1 1 2 3 2 2 2 2 1 2 2 2 3 3 4 4 3 3 3 2 2 2 2 1 1 1 1 1 1 1 1 1 1 1 1 1 1 1 1 1 1 1 1
-0 0 1 2 2 2 2 2 1 1 1 1 2 2 3 2 2 2 2 2 2 1 1 1 1 1 1 1 1 1 1 1 1 1 0 0 0 0 0 0 0 0 0 0
-1 -0 0 1 2 3 3 2 2 1 1 1 1 1 2 2 2 2 2 1 1 1 1 1 1 1 1 1 1 1 1 0 0 -0 -0 -0 -0 -0 -0 -0 -0 -0 -0 -0
-0 -0 1 1 2 3 3 1 1 1 0 1 0 1 1 1 1 1 1 1 1 1 0 0 0 0 0 0 0 0 0 0 -0 -1 -1 -1 -1 -1 -1 -1 -1 -1 -1 -1
-1 -1 -0 1 2 3 3 1 1 1 0 1 1 0 1 0 -1 -0 1 0 0 0 0 -0 -0 -0 -0 -0 -0 -0 -0 -1 -1 -1 -1 -1 -1 -1 -1 -1 -1 -1 -1 -1
-2 -1 -1 0 1 2 1 0 1 1 1 1 1 1 0 -1 -1 0 -0 -0 -0 -0 -0 -0 -0 -0 -1 -1 -1 -1 -1 -1 -1 -1 -2 -2 -2 -2 -2 -2 -2 -2 -2 -2
-1 -1 -1 -0 1 1 -0 -1 -1 0 1 1 1 0 0 -0 -0 -1 -1 -1 -1 -1 -1 -1 -1 -1 -1 -1 -1 -1 -1 -2 -2 -2 -2 -2 -2 -2 -2 -2 -3 -3 -3 -3
-1 -1 -0 -0 0 1 0 0 1 1 0 0 0 -0 -0 -1 -1 -1 -1 -1 -1 -1 -1 -2 -1 -1 -1 -1 -1 -1 -2 -2 -2 -2 -2 -2 -2 -2 -3 -3 -3 -3 -3 -3
-1 -1 -1 -1 -1 0 1 1 0 0 0 -0 -0 -1 -1 -1 -1 -2 -2 -2 -2 -2 -2 -2 -2 -2 -2 -2 -2 -2 -2 -2 -2 -2 -3 -3 -3 -3 -3 -3 -4 -4 -4 -4
-0 -2 -2 -2 -2 -0 0 1 0 0 -0 -1 -1 -1 -1 -1 -2 -2 -2 -2 -2 -2 -2 -2 -2 -2 -2 -2 -2 -2 -2 -2 -3 -3 -3 -3 -3 -4 -4 -4 -4 -4 -4 -4
-1 -2 -2 -1 -0 -1 0 1 0 -0 -0 -1 -1 -1 -1 -2 -2 -2 -2 -2 -2 -2 -2 -3 -3 -2 -2 -2 -2 -3 -3 -3 -3 -3 -3 -3 -4 -4 -4 -4 -4 -4 -4 -4
Wind_Speed
3 2 3 4 5 5 5 5 5 3 2 4 7 9 8 6 5 6 4 3 3 2 2 2 1 1 2 2 1 1 2 2 2 1 1 1 1 2 1 2 3 3 2 1
3 4 5 5 5 5 5 6 6 4 2 4 6 10 9 8 7 5 4 3 2 1 1 0 1 1 2 2 2 2 2 2 2 2 2 2 2 2 2 2 2 3 2 2
4 2 3 4 4 4 4 5 5 5 6 6 6 7 6 4 3 3 3 2 2 2 2 2 1 1 2 2 2 3 3 3 3 2 1 1 1 1 2 2 2 2 3 2
2 3 4 4 3 4 4 2 4 4 4 3 3 5 4 4 5 4 3 2 1 1 1 1 2 2 2 2 2 3 3 3 3 2 2 2 2 2 2 2 2 2 2 2
1 1 3 4 4 4 2 3 4 5 5 5 6 5 6 4 5 4 3 2 1 1 1 2 2 2 2 2 2 2 3 3 3 3 3 3 2 2 2 1 2 2 1 2
2 2 2 2 2 3 2 2 4 4 3 5 7 6 5 4 4 2 1 1 1 1 2 1 1 1 2 1 1 2 3 4 3 3 3 3 3 3 2 2 2 2 1 2
2 3 2 2 2 2 2 1 1 1 3 5 3 4 5 1 2 1 0 1 1 1 1 2 2 2 2 2 2 3 3 4 3 3 3 3 4 4 4 3 2 2 1 2
2 2 2 1 1 2 3 2 2 2 3 2 2 5 3 3 3 2 1 1 3 3 2 2 3 3 3 3 3 3 4 4 3 3 3 3 3 3 3 3 2 2 2 3
2 1 1 1 2 2 1 2 1 1 3 4 5 3 1 2 2 2 2 3 4 4 4 4 4 4 4 4 4 4 4 4 3 3 3 3 3 3 3 3 2 2 2 2
2 1 1 1 2 2 2 1 1 2 2 4 5 4 3 2 1 1 2 3 4 5 5 5 5 5 4 4 4 4 4 4 3 3 3 2 3 3 2 2 2 2 2 2
2 1 2 2 3 4 3 2 2 2 2 2 4 3 1 2 2 2 3 4 5 6 6 6 6 5 4 4 4 3 3 3 2 3 3 2 2 2 2 2 1 1 1 1
1 1 2 2 1 1 2 3 3 3 4 3 3 5 2 4 3 3 4 4 5 5 6 6 6 5 4 4 4 3 2 2 2 2 2 2 2 1 2 1 1 1 1 1
0 1 1 1 1 1 2 4 3 2 2 4 4 6 1 3 4 4 5 5 5 6 6 6 6 6 4 4 3 3 2 1 1 1 2 1 1 1 1 1 1 1 1 1
0 2 4 4 3 2 4 5 5 4 4 5 7 8 6 5 5 6 5 6 6 6 6 6 6 6 5 4 3 3 2 1 1 1 2 2 1 1 1 1 1 1 0 1
0 2 3 6 6 5 5 5 6 8 8 7 7 8 8 6 6 6 5 6 6 7 7 7 7 6 6 5 3 2 2 1 0 0 1 1 1 0 0 0 0 0 1 1
1 2 2 5 5 4 5 6 7 8 7 8 10 11 6 6 5 5 6 6 7 8 7 7 7 7 6 5 4 3 2 1 0 0 1 0 0 0 0 0 1 1 0 0
1 1 1 3 2 4 5 6 7 5 5 5 7 7 6 7 7 6 6 6 6 7 6 6 6 6 5 5 4 4 2 1 1 1 1 1 1 1 1 1 1 1 1 1
3 2 1 2 3 4 3 2 2 4 4 5 6 7 7 8 7 5 5 5 6 6 6 6 5 5 5 5 4 3 3 2 2 1 1 2 2 1 1 1 1 1 1 1
2 3 2 2 3 5 2 0 1 2 4 3 5 8 8 7 6 4 5 6 5 5 5 4 4 4 4 4 4 3 3 3 2 2 2 2 2 2 2 2 1 1 1 1
1 1 2 2 3 4 2 1 1 1 3 3 3 5 6 5 4 4 6 7 6 6 5 4 4 4 4 3 3 4 3 3 3 2 2 2 2 1 1 1 1 1 1 1
1 2 3 4 4 4 1 1 2 1 4 4 2 3 3 2 4 5 6 6 5 5 6 5 4 4 3 3 4 3 3 3 2 3 3 3 2 1 1 1 1 2 2 2
4 3 4 3 4 5 1 3 3 3 2 3 3 3 3 4 5 5 5 5 5 5 6 5 4 4 4 4 3 3 3 3 3 3 3 3 2 2 2 2 2 2 1 1
4 4 3 5 5 1 4 3 2 0 2 3 3 4 4 4 5 5 5 5 5 5 5 4 4 4 4 4 3 3 3 3 4 4 3 3 3 3 2 2 1 1 1 1
3 2 2 4 5 3 3 3 3 3 3 4 4 4 4 4 5 5 5 5 5 4 4 4 4 4 4 4 4 3 3 3 3 3 3 3 3 3 3 2 1 1 1 1
2 3 3 5 5 4 3 4 4 3 3 3 4 3 3 3 4 4 4 4 4 4 4 4 3 3 4 4 4 3 3 3 3 2 2 3 2 2 3 2 2 1 1 0
4 5 5 5 3 3 3 1 2 2 3 3 3 3 3 3 3 4 4 3 3 3 3 3 3 3 3 3 3 3 3 2 2 2 2 2 2 2 2 2 2 4 2 3
Wind_Direction
194 213 227 237 232 254 282 287 281 274 268 277 260 266 265 251 237 238 231 218 216 220 190 160 166 265 288 286 286 305 300 303 323 320 305 287 285 283 284 292 309 297 279 273
206 234 264 272 269 257 262 271 275 277 269 279 273 272 267 249 234 220 220 220 216 243 299 280 190 219 255 273 293 305 298 290 288 281 282 267 266 263 253 277 299 309 303 289
217 239 269 261 260 255 246 251 272 283 301 266 270 276 240 216 214 209 205 207 201 207 250 273 283 263 272 271 277 281 275 275 275 272 280 293 297 285 290 284 280 298 304 299
232 244 261 252 257 267 258 280 277 285 297 275 250 282 246 213 216 221 215 200 228 235 244 255 260 263 263 268 274 277 273 274 265 248 235 236 251 259 272 268 274 288 301 306
248 262 265 254 263 277 264 300 274 263 267 281 244 240 259 201 226 230 216 222 241 255 264 258 246 245 265 263 280 287 285 276 265 247 229 230 243 256 271 264 269 288 297 294
261 269 286 280 273 272 277 269 249 240 249 256 230 214 258 210 225 229 242 250 272 279 270 292 270 247 272 253 259 267 276 275 270 248 227 222 230 241 247 266 271 286 299 302
230 213 201 238 254 216 232 207 338 253 232 241 192 212 249 190 90 123 208 317 347 324 333 336 322 289 267 269 273 265 267 279 269 257 240 233 233 231 230 235 232 250 269 280
225 234 188 215 250 229 218 235 202 244 267 287 229 234 230 111 82 55 60 24 359 343 339 323 313 290 273 271 270 269 262 268 261 252 241 233 233 227 228 233 223 232 236 244
284 252 142 238 285 276 233 223 268 249 277 275 241 220 199 124 90 44 19 2 343 338 338 326 313 301 285 277 267 261 264 262 257 261 251 233 233 228 228 243 232 236 247 248
326 278 230 188 247 246 266 288 210 196 262 277 265 227 215 185 223 352 348 334 327 327 326 321 310 304 291 285 276 270 260 246 242 251 253 257 241 232 223 235 246 258 251 234
319 221 243 199 207 206 198 210 225 246 255 253 285 279 61 132 120 2 333 337 338 337 329 321 310 303 295 296 293 279 266 251 236 234 239 239 236 242 228 236 255 248 241 229
339 262 251 229 201 294 235 220 196 202 250 230 259 275 35 62 66 19 344 334 335 329 324 321 320 317 306 295 294 279 265 255 236 238 241 231 210 220 231 240 248 222 241 260
12 189 276 275 266 251 255 237 228 231 264 244 245 264 357 30 19 4 347 339 336 329 330 333 333 328 322 312 306 302 287 278 264 248 234 224 211 216 213 213 198 208 214 281
311 225 226 245 276 251 244 237 220 207 222 249 241 264 290 319 330 331 332 333 331 330 332 334 330 329 329 328 318 310 292 281 264 215 208 218 225 201 175 182 209 227 259 283
15 249 258 275 278 273 255 239 216 220 230 238 265 275 285 307 314 315 326 329 328 327 329 331 329 329 332 339 333 324 312 320 353 170 208 222 229 164 158 175 146 333 275 294
350 271 297 281 262 264 266 255 231 232 244 257 279 285 295 317 324 327 327 326 324 323 325 329 331 331 333 338 341 341 341 344 85 164 242 226 133 100 149 109 77 36 9 25
197 204 277 278 312 313 272 243 216 217 222 223 247 264 316 324 325 321 321 322 319 320 324 325 325 326 332 335 339 339 343 10 75 85 46 40 80 74 43 50 53 15 359 17
180 202 230 285 317 257 241 22 175 208 247 245 270 296 319 317 315 316 325 332 326 326 326 328 334 339 341 344 348 359 14 32 50 51 40 36 62 56 29 51 48 18 16 22
206 192 228 250 269 270 277 339 81 208 283 263 267 293 312 327 329 319 343 343 331 329 328 327 328 331 340 345 357 17 23 34 35 31 31 34 63 56 42 41 35 39 42 31
52 163 211 235 254 261 283 13 38 106 286 322 303 300 319 351 337 310 343 343 339 342 342 340 341 346 346 347 19 30 22 33 29 20 23 26 51 57 50 43 38 36 33 46
159 193 212 231 245 266 316 19 93 133 278 331 327 313 325 299 267 300 330 335 339 346 347 351 353 354 352 5 34 33 26 23 20 25 30 27 31 43 50 60 53 35 37 53
182 185 200 200 224 257 124 119 175 237 313 330 329 327 313 301 306 321 330 335 342 346 346 350 354 354 358 16 39 33 20 14 29 35 34 27 19 22 35 56 49 34 38 74
205 204 201 204 218 249 172 199 230 301 303 310 317 319 316 311 313 321 328 335 339 340 345 353 356 2 7 16 38 39 12 22 33 36 30 25 23 30 35 43 56 40 33 68
220 189 228 266 267 259 236 265 294 293 287 304 312 311 314 309 315 321 327 332 335 344 350 355 5 10 3 11 21 27 14 25 38 32 21 20 25 26 23 19 18 42 31 37
216 170 219 254 275 294 269 252 269 288 306 316 323 319 313 313 316 322 328 333 336 345 351 360 8 5 356 5 12 10 18 39 40 25 17 16 22 28 27 22 18 10 14 359
197 194 202 235 239 228 271 299 291 291 292 294 309 322 327 323 317 325 326 330 336 341 350 359 0 356 352 3 4 2 11 22 33 20 14 16 23 25 26 31 28 25 30 26
Height
1485 1487 1487 1485 1484 1484 1483 1483 1483 1481 1481 1482 1482 1478 1475 1474 1474 1474 1474 1475 1476 1477 1477 1477 1477 1476 1476 1476 1475 1475 1474 1474 1474 1473 1473 1472 1472 1473 1474 1475 1475 1476 1477 1478
1486 1487 1485 1483 1482 1482 1482 1484 1483 1481 1480 1481 1479 1476 1472 1470 1469 1470 1471 1472 1473 1474 1474 1474 1473 1473 1473 1473 1472 1472 1471 1470 1470 1470 1470 1469 1469 1470 1470 1471 1472 1472 1473 1474
1483 1485 1483 1483 1482 1483 1483 1485 1484 1484 1482 1479 1480 1475 1468 1465 1466 1467 1468 1470 1471 1471 1471 1471 1471 1470 1470 1469 1469 1468 1468 1467 1467 1467 1467 1466 1466 1466 1466 1466 1467 1468 1469 1469
1483 1483 1483 1482 1483 1483 1484 1483 1484 1485 1488 1485 1481 1484 1468 1465 1465 1465 1466 1467 1468 1469 1469 1468 1468 1467 1467 1466 1466 1465 1464 1464 1463 1463 1463 1462 1462 1461 1462 1462 1463 1463 1465 1465
1483 1483 1483 1483 1484 1483 1484 1483 1484 1485 1487 1489 1481 1485 1471 1464 1464 1464 1464 1465 1465 1466 1465 1465 1465 1464 1463 1462 1462 1462 1461 1461 1460 1460 1459 1459 1459 1459 1459 1459 1459 1460 1461 1462
1483 1483 1483 1483 1483 1484 1483 1484 1484 1485 1488 1492 1477 1480 1470 1463 1461 1460 1461 1462 1463 1462 1462 1462 1461 1461 1460 1459 1459 1458 1458 1457 1457 1456 1456 1455 1456 1456 1456 1456 1456 1456 1457 1457
1483 1483 1483 1484 1484 1484 1484 1488 1489 1488 1489 1481 1467 1472 1467 1458 1458 1459 1460 1461 1461 1460 1459 1459 1458 1457 1456 1456 1455 1455 1454 1453 1453 1452 1452 1452 1452 1453 1453 1452 1452 1453 1453 1453
1483 1484 1483 1483 1484 1485 1484 1485 1491 1490 1482 1474 1470 1470 1462 1457 1457 1457 1459 1459 1459 1458 1457 1456 1456 1454 1453 1452 1451 1450 1449 1448 1448 1448 1448 1448 1449 1449 1449 1449 1449 1449 1449 1450
1483 1484 1483 1483 1483 1484 1483 1486 1484 1489 1487 1485 1470 1460 1458 1455 1456 1457 1457 1458 1458 1457 1455 1454 1453 1451 1450 1448 1447 1445 1444 1444 1444 1444 1444 1444 1445 1445 1445 1446 1445 1446 1446 1446
1484 1487 1483 1483 1483 1484 1484 1484 1488 1490 1488 1479 1463 1458 1460 1459 1458 1457 1458 1457 1457 1455 1453 1452 1450 1448 1446 1444 1442 1441 1440 1440 1440 1440 1440 1441 1441 1442 1442 1442 1442 1442 1442 1442
1485 1489 1486 1485 1486 1485 1486 1486 1486 1485 1483 1483 1476 1465 1454 1455 1456 1457 1457 1456 1455 1453 1451 1449 1446 1444 1442 1440 1438 1437 1436 1436 1436 1436 1437 1437 1438 1438 1438 1438 1438 1439 1438 1439
1486 1487 1487 1485 1484 1484 1483 1483 1486 1489 1486 1482 1481 1471 1455 1454 1455 1456 1456 1455 1453 1451 1449 1446 1443 1440 1438 1436 1435 1433 1433 1433 1433 1433 1434 1434 1434 1434 1434 1434 1435 1435 1435 1436
1488 1489 1488 1483 1487 1487 1486 1483 1484 1486 1485 1482 1480 1469 1455 1455 1456 1456 1456 1454 1452 1450 1447 1444 1441 1438 1436 1434 1432 1431 1431 1430 1430 1430 1431 1431 1431 1431 1431 1431 1432 1432 1432 1433
1487 1489 1488 1483 1478 1482 1485 1484 1484 1486 1486 1480 1472 1464 1458 1457 1457 1456 1455 1453 1451 1448 1446 1443 1440 1437 1434 1432 1430 1429 1428 1428 1428 1428 1428 1428 1428 1428 1428 1429 1429 1429 1429 1430
1488 1488 1485 1482 1479 1479 1479 1480 1482 1483 1478 1477 1468 1464 1459 1459 1458 1456 1454 1452 1450 1447 1444 1441 1438 1435 1432 1430 1428 1427 1426 1426 1426 1426 1426 1426 1426 1426 1426 1426 1426 1426 1427 1427
1488 1489 1486 1482 1476 1477 1478 1476 1476 1477 1476 1474 1471 1466 1459 1458 1457 1455 1453 1451 1449 1446 1443 1440 1437 1434 1431 1429 1427 1426 1424 1424 1424 1424 1424 1424 1424 1424 1424 1424 1424 1424 1424 1424
1489 1490 1487 1481 1477 1477 1477 1471 1472 1473 1471 1471 1470 1464 1459 1457 1456 1455 1453 1451 1448 1445 1442 1439 1436 1433 1431 1428 1426 1424 1423 1422 1422 1422 1422 1422 1422 1422 1422 1422 1422 1422 1422 1422
1489 1489 1488 1484 1482 1478 1468 1465 1465 1468 1468 1467 1464 1462 1460 1459 1455 1453 1452 1450 1447 1444 1441 1438 1435 1432 1430 1428 1426 1424 1423 1421 1421 1421 1421 1420 1420 1420 1421 1421 1420 1420 1420 1421
1486 1488 1487 1485 1481 1471 1467 1467 1467 1469 1468 1464 1464 1461 1459 1457 1454 1452 1450 1448 1446 1443 1440 1437 1434 1431 1429 1427 1425 1423 1422 1421 1420 1420 1420 1420 1419 1419 1419 1419 1419 1419 1419 1420
1487 1488 1489 1484 1481 1473 1468 1467 1465 1469 1468 1462 1461 1460 1459 1457 1457 1454 1450 1447 1445 1442 1439 1436 1433 1431 1428 1427 1425 1423 1421 1420 1420 1420 1419 1419 1419 1419 1419 1419 1419 1419 1419 1419
1489 1488 1488 1484 1481 1471 1469 1466 1466 1471 1468 1463 1461 1460 1459 1458 1457 1454 1450 1447 1444 1441 1438 1435 1432 1430 1428 1427 1425 1423 1421 1421 1421 1420 1420 1419 1419 1419 1419 1419 1419 1419 1419 1419
1483 1484 1484 1482 1480 1475 1468 1467 1469 1467 1463 1462 1460 1459 1458 1456 1453 1451 1449 1446 1443 1440 1437 1434 1432 1430 1428 1427 1425 1423 1422 1422 1421 1420 1420 1419 1419 1419 1419 1419 1418 1419 1419 1419
1477 1476 1475 1475 1473 1466 1465 1464 1464 1463 1462 1460 1459 1457 1456 1454 1451 1449 1447 1444 1442 1439 1437 1434 1432 1430 1429 1427 1426 1424 1423 1422 1421 1420 1419 1419 1419 1419 1419 1419 1418 1419 1419 1419
1472 1471 1472 1471 1465 1463 1463 1462 1462 1461 1460 1459 1457 1456 1454 1452 1450 1448 1446 1443 1441 1439 1437 1435 1432 1430 1429 1428 1426 1425 1424 1423 1421 1420 1420 1420 1419 1419 1419 1419 1419 1419 1419 1419
1468 1470 1470 1469 1464 1461 1460 1459 1459 1458 1457 1456 1455 1454 1452 1450 1448 1446 1444 1442 1440 1438 1436 1435 1433 1431 1430 1428 1427 1426 1425 1424 1422 1421 1421 1420 1420 1419 1419 1419 1419 1419 1419 1420
1464 1466 1467 1463 1459 1459 1458 1457 1457 1456 1455 1454 1453 1451 1450 1448 1447 1445 1443 1441 1439 1438 1436 1435 1433 1431 1430 1429 1427 1427 1426 1425 1423 1422 1421 1420 1420 1419 1419 1418 1418 1419 1419 1419